SCP
0 0 0 0 0 0 0 0 0 0 0 0 0 1 1 1 2 2 2 3 3 2 2 2 2 1 1 1 1 1 1 1 2 2 2 2 1 1 1 1 1 0 0 0
0 0 0 0 0 0 0 0 0 0 0 0 0 0 1 1 1 2 2 2 2 1 1 1 1 1 1 1 1 1 1 1 1 1 1 1 1 1 1 1 1 0 0 0
0 0 0 0 0 0 0 0 0 0 0 0 0 0 1 1 1 1 2 1 1 1 0 0 1 1 1 1 0 0 0 0 0 1 1 1 1 0 0 0 0 0 0 0
0 0 0 0 0 0 0 0 0 0 0 0 0 0 1 1 1 1 1 1 1 0 0 0 0 0 0 0 0 0 0 0 0 0 1 1 1 1 1 0 0 0 0 1
0 0 0 0 0 0 0 0 0 0 0 0 0 0 1 1 1 1 1 0 0 0 0 0 0 0 0 0 0 0 0 0 0 0 1 1 1 1 1 1 1 1 1 1
0 0 0 0 0 0 0 0 0 0 0 0 0 0 0 1 1 1 0 0 0 0 0 0 0 0 0 0 0 0 0 0 0 0 0 0 0 1 1 1 1 1 1 1
0 0 0 0 0 0 0 0 0 0 0 0 0 0 0 1 1 0 0 0 0 0 0 0 0 0 0 0 0 0 0 0 0 0 0 0 0 0 0 0 0 1 1 1
0 0 0 0 0 0 0 0 0 0 0 0 0 0 1 1 0 0 0 0 0 0 0 0 0 0 0 0 0 0 0 0 0 0 0 0 0 0 0 0 0 0 0 0
0 0 0 0 0 0 0 0 0 0 0 0 0 0 0 0 0 0 0 0 0 0 0 0 0 0 0 0 0 0 0 0 0 0 0 0 0 0 0 0 0 0 0 0
0 0 0 0 0 0 0 0 0 0 0 0 0 0 0 0 0 0 0 0 0 0 0 0 0 0 0 0 0 0 0 0 0 0 0 0 0 0 0 0 0 0 0 0
0 0 0 0 0 0 0 0 0 0 0 0 0 0 0 0 0 0 0 0 0 0 0 0 0 0 0 0 0 0 0 0 0 0 0 0 0 0 0 0 0 0 0 0
0 0 0 0 0 0 0 0 0 0 0 0 0 0 0 0 0 0 0 0 0 0 0 0 0 0 0 0 0 0 0 0 0 0 0 0 0 0 0 0 0 0 0 0
0 0 0 0 0 0 0 0 0 0 0 0 0 0 0 0 0 0 0 0 0 0 0 0 0 0 0 0 0 0 0 0 0 0 0 0 0 0 0 0 0 0 0 0
0 0 0 0 0 0 0 0 0 0 0 0 0 0 0 0 0 0 0 0 0 0 0 0 0 0 0 0 0 0 0 0 0 0 0 0 0 0 0 0 0 0 0 0
0 0 0 0 0 0 0 0 0 0 0 0 0 0 0 0 0 0 0 0 0 0 0 0 0 0 0 0 0 0 0 0 0 0 0 0 0 0 0 0 0 0 0 0
0 0 0 0 0 0 0 0 0 0 0 0 0 0 0 0 0 0 0 0 0 0 0 0 0 0 0 0 0 0 0 0 0 0 0 0 0 0 0 0 0 0 0 0
0 0 0 0 0 0 0 0 0 0 0 0 0 0 0 0 0 0 0 0 0 0 0 0 0 0 0 0 0 0 0 0 0 0 0 0 0 0 0 0 0 0 0 0
0 0 0 0 0 0 0 0 0 0 0 0 0 0 0 0 0 0 0 0 0 0 0 0 0 0 0 0 0 0 0 0 0 0 0 0 0 0 0 0 0 0 0 0
0 0 0 0 0 0 0 0 0 0 0 0 0 0 0 0 0 0 0 0 0 0 0 0 0 0 0 0 0 0 0 0 0 0 0 0 0 0 0 0 0 0 0 0
0 0 0 0 0 0 0 0 0 0 0 0 0 0 0 0 0 0 0 0 0 0 0 0 0 0 0 0 0 0 0 0 0 0 0 0 0 0 0 0 0 0 0 0
0 0 0 0 0 0 0 0 0 0 0 0 0 0 0 0 0 0 0 0 0 0 0 0 0 0 0 0 0 0 0 0 0 0 0 0 0 0 0 0 0 0 0 0
0 0 0 0 0 0 0 0 0 0 0 0 0 0 0 0 0 0 0 0 0 0 0 0 0 0 0 0 0 0 0 0 0 0 0 0 0 0 0 0 0 0 0 0
0 0 0 0 0 0 0 0 0 0 0 0 0 0 0 0 0 0 0 0 0 0 0 0 0 0 0 0 0 0 0 0 0 0 0 0 0 0 0 0 0 0 0 0
0 0 0 0 0 0 0 0 0 0 0 0 0 0 0 0 0 0 0 0 0 0 0 0 0 0 0 0 0 0 0 0 0 0 0 0 0 0 0 0 0 0 0 0
0 0 0 0 0 0 0 0 0 0 0 0 0 0 0 0 0 0 0 0 0 0 0 0 0 0 0 0 0 0 0 0 0 0 0 0 0 0 0 0 0 0 0 0
0 0 0 0 0 0 0 0 0 0 0 0 0 0 0 0 0 0 0 0 0 0 0 0 0 0 0 0 0 0 0 0 0 0 0 0 0 0 0 0 0 0 0 0
Wind_Speed
1 2 6 11 8 9 5 4 5 5 6 8 10 14 17 19 19 16 12 10 9 7 4 5 8 9 6 7 9 6 4 7 7 6 5 3 3 2 3 4 6 6 6 7
1 6 13 10 7 5 5 5 5 5 7 8 11 15 14 18 17 14 12 11 9 5 4 7 9 10 9 8 5 3 5 6 8 6 4 3 3 2 3 3 5 6 6 7
2 3 7 7 6 5 5 4 5 4 4 8 6 8 11 11 14 15 14 11 11 9 9 10 13 13 13 11 8 5 3 3 5 5 3 1 1 1 1 2 3 5 6 7
4 8 12 11 7 3 5 7 5 4 3 3 4 2 4 6 12 15 14 12 11 9 9 10 12 12 12 10 9 7 6 5 6 6 5 4 1 1 1 2 2 4 5 6
5 5 7 7 6 5 5 5 3 3 1 1 3 5 2 4 9 11 10 9 8 6 6 7 8 8 8 7 6 5 5 6 6 7 7 7 6 4 3 4 4 3 3 3
4 3 3 5 7 4 1 6 7 7 6 3 3 5 3 3 2 4 4 4 3 3 4 5 5 6 5 4 3 3 4 4 4 5 6 6 6 6 6 6 6 5 3 2
8 7 4 2 6 7 6 8 6 7 6 3 1 6 2 3 4 4 3 1 2 2 2 3 3 3 1 1 1 1 2 3 4 4 4 4 4 4 4 4 4 4 3 3
2 6 5 4 4 5 1 7 5 3 4 3 3 3 2 3 3 3 3 1 1 2 2 2 1 0 1 2 2 2 1 0 1 2 3 3 3 2 2 2 2 3 3 4
5 6 5 5 5 2 0 1 5 6 1 2 1 3 2 4 3 2 2 2 3 3 3 4 3 2 2 2 3 3 3 3 2 2 1 1 2 2 3 3 3 2 3 4
6 4 5 4 4 5 2 1 6 4 1 2 1 2 4 6 3 1 0 0 2 3 4 5 5 5 5 3 3 2 3 4 5 5 5 4 4 4 4 3 4 4 4 4
3 1 7 6 4 4 6 5 4 2 3 3 1 3 3 4 3 3 3 3 4 5 7 8 8 8 7 5 4 4 4 5 5 6 6 6 6 6 5 5 6 5 4 5
3 5 3 5 4 3 5 4 2 2 3 2 2 2 2 4 4 2 3 5 7 8 8 8 8 9 7 7 7 6 7 7 7 7 7 7 7 7 6 7 7 6 6 6
3 6 5 9 10 8 8 7 5 5 5 4 3 5 2 1 2 3 5 7 8 9 8 7 7 7 7 8 8 9 9 9 9 8 8 8 8 8 8 8 8 7 7 7
6 5 4 3 6 2 5 8 9 7 5 3 1 4 4 5 6 7 7 8 9 7 6 6 7 7 7 8 8 9 10 10 10 9 9 9 10 10 10 9 8 8 7 7
7 4 3 2 7 11 9 10 10 9 5 1 3 2 3 5 6 7 8 10 9 7 7 9 8 8 8 8 9 9 9 10 10 10 10 11 11 10 9 8 8 8 7 8
5 4 5 5 9 11 11 10 8 6 4 3 3 1 4 6 5 7 9 11 9 9 11 12 11 11 10 10 10 10 10 11 10 10 11 11 9 9 8 8 7 6 6 7
3 4 4 3 3 2 6 5 5 3 4 4 3 5 7 7 9 9 10 10 10 13 15 15 13 12 11 11 11 12 12 11 10 11 11 10 9 9 9 9 7 7 6 6
4 3 3 2 6 3 3 1 4 4 4 3 1 6 6 8 9 8 10 10 13 15 14 13 12 12 11 11 11 11 11 11 11 11 11 10 9 9 9 8 7 6 5 5
4 5 4 3 2 1 0 4 3 1 3 3 5 8 9 9 6 6 9 10 12 13 13 12 11 12 11 11 11 12 13 12 12 11 9 8 7 8 7 8 7 6 5 6
7 7 6 3 2 3 3 5 5 2 2 3 6 8 9 9 8 7 9 10 11 11 9 9 10 10 10 11 11 12 13 13 13 12 11 10 8 7 7 7 7 6 5 6
5 6 5 2 2 2 3 5 5 5 7 8 6 7 7 6 7 11 13 10 10 9 10 10 10 10 11 12 11 12 13 14 13 12 11 10 9 8 8 7 6 6 6 6
4 3 2 2 2 5 3 3 3 5 6 5 5 6 6 8 10 10 10 10 10 10 11 11 11 13 13 12 12 14 14 14 13 12 12 11 10 10 10 7 6 6 6 6
4 7 6 6 6 5 1 3 4 4 3 4 5 6 7 8 8 9 9 10 10 12 13 13 15 16 14 12 12 15 15 13 13 12 12 11 11 9 8 8 8 7 6 6
2 3 3 1 2 4 2 0 2 2 2 4 5 6 7 8 9 9 9 10 12 13 14 15 16 17 16 14 13 13 14 13 12 12 11 10 9 9 8 7 6 6 6 6
6 4 3 1 1 1 3 3 3 3 4 5 6 6 7 7 8 8 9 11 12 14 14 14 15 15 16 15 15 14 13 12 12 12 10 9 8 8 7 6 6 6 6 6
2 6 5 6 6 4 5 4 2 4 5 6 6 7 7 6 7 9 10 11 13 15 15 14 15 15 15 15 15 15 13 12 12 10 8 6 5 5 5 4 4 6 7 9
Wind_Direction
248 123 247 251 226 217 263 315 322 318 340 36 54 52 41 47 63 64 58 58 65 79 91 80 79 84 81 89 97 112 196 244 258 257 260 256 244 220 190 191 184 180 175 167
335 245 246 254 287 320 338 346 330 321 350 34 65 65 55 52 57 53 41 26 12 8 27 50 59 62 57 65 86 139 213 236 247 250 244 233 224 217 199 196 197 192 177 168
199 322 331 327 322 341 333 311 304 313 8 27 73 54 40 47 56 52 40 22 7 11 28 42 47 47 48 45 33 35 26 356 324 299 284 300 14 18 48 227 227 215 190 177
3 338 350 340 314 296 290 283 299 320 14 342 52 71 34 28 43 41 33 20 11 10 32 48 52 51 51 49 43 34 29 36 25 8 8 17 22 333 313 277 260 250 216 187
309 321 335 317 293 306 268 292 332 328 335 18 29 91 9 10 38 36 29 20 4 354 26 50 58 63 61 59 56 47 31 30 30 35 32 31 27 10 357 359 355 318 272 227
273 268 240 258 292 290 341 27 21 37 53 16 350 101 14 25 65 54 33 16 340 343 28 50 60 67 60 47 39 32 34 27 20 32 41 43 33 17 13 7 0 351 337 322
333 320 308 296 329 328 53 62 21 358 1 289 2 95 129 141 146 136 145 226 274 315 20 39 50 63 88 112 100 60 46 18 8 23 29 30 27 17 10 351 347 347 339 332
330 318 326 324 281 251 321 119 137 222 249 288 14 90 157 176 180 164 153 184 312 339 353 5 356 273 237 223 212 201 176 247 347 19 13 8 7 355 331 327 321 318 305 299
190 265 284 282 282 192 275 229 176 158 239 95 128 114 171 222 202 154 104 47 4 348 351 346 337 326 292 265 248 233 217 222 225 213 211 274 315 315 305 308 309 301 300 307
171 238 287 310 9 9 140 156 59 67 50 349 275 206 192 195 195 155 181 301 309 312 308 301 292 278 263 235 216 207 208 220 222 218 219 220 234 246 260 281 294 296 299 311
139 136 319 353 19 349 355 15 53 78 151 142 302 284 225 192 202 225 254 257 269 276 276 272 270 268 259 246 238 241 239 235 236 233 233 237 242 240 242 251 263 270 276 287
34 92 340 311 322 20 41 18 62 97 341 69 109 288 230 187 214 235 289 297 295 290 287 289 297 296 289 276 268 261 256 251 248 242 240 244 247 244 242 247 251 251 258 265
70 78 26 347 348 10 37 13 29 102 81 58 59 306 290 206 326 330 324 317 308 303 306 312 315 312 297 281 270 263 257 252 251 248 244 247 250 246 244 245 249 248 248 254
94 81 130 208 266 345 57 44 42 67 69 54 30 308 8 4 346 335 326 313 306 309 314 311 303 295 284 274 268 264 261 255 252 248 244 242 243 242 241 242 245 246 244 247
78 50 344 10 93 88 75 59 59 67 75 94 305 81 7 328 315 306 303 306 310 309 305 299 290 280 273 269 264 258 254 252 249 245 241 238 236 234 233 234 238 243 245 246
69 53 35 58 107 94 70 51 43 41 33 11 46 69 308 304 309 311 311 315 309 300 301 298 291 283 275 269 265 260 255 252 246 242 240 235 228 224 220 220 223 228 237 246
60 63 43 337 271 69 31 30 52 34 34 68 44 303 302 314 315 307 310 308 296 300 304 302 296 285 282 279 276 273 268 263 255 247 242 233 224 220 216 212 207 213 228 238
118 88 93 7 24 39 229 87 75 101 100 61 328 291 296 298 296 290 294 297 301 305 306 303 300 297 295 292 295 293 292 286 275 265 256 246 233 227 217 208 207 214 220 231
114 119 85 67 359 190 291 6 353 269 192 53 355 332 322 308 306 286 280 289 294 299 304 307 309 310 312 315 317 316 311 306 299 292 283 272 257 239 222 213 213 214 218 231
49 79 88 49 348 251 274 315 308 5 288 333 345 322 316 333 331 298 298 303 304 309 314 319 322 322 321 320 321 317 313 309 304 301 299 295 284 261 237 224 219 216 218 229
26 38 62 42 312 272 304 323 38 58 279 297 305 309 317 311 279 291 310 316 320 321 320 319 317 316 315 316 314 309 305 300 297 293 288 287 287 277 261 242 230 226 227 231
125 103 88 79 354 275 313 44 71 244 256 284 296 301 299 292 291 300 313 320 324 320 317 319 320 321 319 316 312 307 303 300 299 295 290 286 280 277 277 258 242 228 224 229
149 174 177 176 209 224 184 152 206 227 273 293 297 299 303 309 309 317 321 323 320 319 323 326 326 324 321 317 311 307 305 303 301 297 292 288 285 278 272 262 252 239 226 225
242 160 121 132 175 182 159 155 330 346 325 312 310 311 322 320 320 325 324 322 324 329 330 331 329 326 324 322 315 307 304 303 299 294 290 285 281 277 271 262 251 238 224 221
193 144 127 222 236 207 327 329 339 10 356 341 333 327 329 331 328 326 322 324 329 332 331 330 328 325 323 321 317 313 309 306 302 295 288 283 276 274 274 264 251 238 225 214
177 150 158 215 223 197 255 284 30 27 352 339 340 336 333 333 328 327 324 327 331 332 331 329 327 324 322 321 319 317 316 313 309 305 297 288 281 277 273 271 275 253 239 231